Location: Betpouey
(42.8833°N, 0.0333°E)
Time: 04:26:50
(UTC+00:00)

Meteor 2-13 Rocket - Pass Details

Date: 30 June 2021
Orbit: 935 x 958 km, 82.5° (Epoch: 26 July)

Event Time Altitude Azimuth Distance (km) Brightness Sun altitude
Exits shadow 01:26:15 - 264° (W) 2,818 6.7 -21.3°
Reaches altitude 10° 01:26:59 10° 270° (W) 2,691 6.6 -21.2°
Maximum altitude 01:29:46 13° 298° (WNW) 2,464 6.7 -21.0°
Drops below altitude 10° 01:32:34 10° 325° (NW) 2,695 7.2 -20.8°
Sets 01:36:43 0° 352° (N) 3,642 8.5 -20.6°
